Weather History for Ravenna, OH

Change the Weather History Date:

Saturday, November 23, 2013

  Actual Average (KCAK) Record (KCAK)
Temperature  
Mean Temperature 26 °F 39 °F  
Max Temperature 34 °F 46 °F 74 °F (1931)
Min Temperature 17 °F 32 °F 10 °F (1971)
Degree Days  
Heating Degree Days 40 26  
Month to date heating degree days 508  
Since 1 July heating degree days 1063  
Cooling Degree Days 0 0  
Month to date cooling degree days 0  
Year to date cooling degree days 652  
Moisture  
Dew Point 21 °F    
Average Humidity 77    
Maximum Humidity 99    
Minimum Humidity 52    
Precipitation  
Precipitation 0.00 in 0.12 in 1.18 in (1961)
Month to date precipitation 2.54  
Year to date precipitation 36.02  
Snow  
Snow 0.00 in 0.20 in - ()
Month to date snowfall 1.9  
Since 1 July snowfall 2.3  
Since 1 September snowfall 2.3  
Snow Depth -    
Sea Level Pressure  
Sea Level Pressure 30.25 in    
Wind  
Wind Speed 8 mph (WNW)    
Max Wind Speed 20 mph    
Max Gust Speed 30 mph    
Visibility 7 miles    
Events Snow    
T = Trace of Precipitation, MM = Missing Value Source: NWS Daily Summary

Daily Weather History Graph

Daily Weather History Graph

Search for Another Location

Airport:

Trip Planner

Search our weather history database for the weather conditions in past years. The results will help you decide how hot, cold, wet, or windy it might be!

Date:

Astronomy

Nov. 23, 2013 Rise Set
Actual Time 7:22 AM EST 5:00 PM EST
Civil Twilight 6:52 AM EST 5:30 PM EST
Nautical Twilight 6:18 AM EST 6:04 PM EST
Astronomical Twilight 5:45 AM EST 6:36 PM EST
Moon 10:28 PM EST (11/23) 11:37 AM EST (11/23)
Length of Visible Light 10h 37m
Length of Day
9h 37m
Waning Gibbous, 70% of the Moon is Illuminated
Nov 23
Waning Gibbous
Nov 25
Last Quarter
Dec 2
New
Dec 9
First Quarter
Dec 17
Full

Hourly Weather History & Observations

Time (EST) Temp. Windchill Dew Point Humidity Pressure Visibility Wind Dir Wind Speed Gust Speed Precip Events Conditions
12:14 AM 34.0 °F 31.0 °F 27.9 °F 78% 30.27 in 10.0 mi NW 3.5 mph - N/A   Overcast
12:34 AM 33.1 °F 30.0 °F 27.3 °F 79% 30.27 in 10.0 mi WNW 3.5 mph - N/A   Mostly Cloudy
12:54 AM 32.5 °F 28.1 °F 27.3 °F 81% 30.27 in 10.0 mi WNW 4.6 mph - N/A   Clear
1:14 AM 32.0 °F 27.5 °F 26.8 °F 81% 30.27 in 10.0 mi NW 4.6 mph - N/A   Clear
1:34 AM 31.8 °F 28.5 °F 26.6 °F 81% 30.27 in 10.0 mi NW 3.5 mph - N/A   Clear
1:54 AM 31.8 °F 27.3 °F 26.6 °F 81% 30.27 in 10.0 mi WNW 4.6 mph - N/A   Clear
2:14 AM 31.6 °F 28.3 °F 25.7 °F 79% 30.27 in 10.0 mi NW 3.5 mph - N/A   Clear
2:34 AM 31.6 °F 28.3 °F 25.2 °F 77% 30.27 in 10.0 mi NW 3.5 mph - N/A   Scattered Clouds
2:53 AM 31.5 °F 26.8 °F 25.3 °F 78% 30.27 in 10.0 mi WNW 4.6 mph - N/A   Mostly Cloudy
3:14 AM 31.1 °F - 25.2 °F 79% 30.26 in 10.0 mi Calm Calm - N/A   Scattered Clouds
3:34 AM 31.5 °F 28.1 °F 24.3 °F 75% 30.25 in 10.0 mi WNW 3.5 mph - N/A   Clear
3:53 AM 30.2 °F 26.7 °F 24.4 °F 79% 30.25 in 10.0 mi West 3.5 mph - N/A   Clear
4:14 AM 29.8 °F 23.0 °F 24.3 °F 80% 30.25 in 10.0 mi West 6.9 mph - N/A   Clear
4:34 AM 29.7 °F 22.0 °F 24.6 °F 81% 30.24 in 10.0 mi West 8.1 mph - N/A   Clear
4:54 AM 29.8 °F 23.0 °F 24.3 °F 80% 30.24 in 10.0 mi West 6.9 mph - N/A   Clear
5:14 AM 29.3 °F 23.2 °F 23.9 °F 80% 30.24 in 10.0 mi West 5.8 mph - N/A   Clear
5:34 AM 29.3 °F 22.3 °F 23.5 °F 79% 30.23 in 10.0 mi West 6.9 mph - N/A   Clear
5:53 AM 29.3 °F 22.3 °F 23.7 °F 80% 30.24 in 10.0 mi West 6.9 mph - N/A   Mostly Cloudy
6:14 AM 29.8 °F 21.5 °F 23.9 °F 79% 30.24 in 10.0 mi West 9.2 mph - N/A   Mostly Cloudy
6:34 AM 30.2 °F 20.2 °F 24.1 °F 78% 30.24 in 10.0 mi West 12.7 mph - N/A   Overcast
6:53 AM 30.2 °F 21.3 °F 23.5 °F 76% 30.24 in 10.0 mi West 10.4 mph - N/A   Overcast
7:14 AM 29.5 °F 23.4 °F 23.7 °F 79% 30.24 in 10.0 mi West 5.8 mph - N/A   Mostly Cloudy
7:34 AM 29.1 °F 23.0 °F 23.9 °F 81% 30.24 in 10.0 mi West 5.8 mph - N/A   Scattered Clouds
7:54 AM 29.3 °F 23.2 °F 24.6 °F 83% 30.23 in 10.0 mi WSW 5.8 mph - N/A   Clear
8:14 AM 29.7 °F 22.0 °F 24.8 °F 82% 30.23 in 10.0 mi WSW 8.1 mph - N/A   Clear
8:34 AM 29.8 °F 20.3 °F 24.8 °F 81% 30.23 in 10.0 mi WSW 11.5 mph - N/A   Clear
8:53 AM 30.2 °F 21.3 °F 25.2 °F 82% 30.22 in 10.0 mi West 10.4 mph - N/A   Clear
9:14 AM 30.7 °F 22.6 °F 25.2 °F 80% 30.22 in 10.0 mi WSW 9.2 mph - N/A   Scattered Clouds
9:34 AM 31.1 °F 21.9 °F 25.5 °F 80% 30.22 in 10.0 mi West 11.5 mph 16.1 mph N/A   Mostly Cloudy
9:54 AM 31.1 °F 20.5 °F 25.0 °F 78% 30.22 in 10.0 mi West 15.0 mph - N/A   Overcast
10:14 AM 32.0 °F 22.5 °F 25.3 °F 76% 30.22 in 10.0 mi West 12.7 mph 17.3 mph N/A   Overcast
10:34 AM 31.8 °F 21.8 °F 24.8 °F 75% 30.22 in 10.0 mi West 13.8 mph - N/A   Overcast
10:53 AM 32.0 °F 21.6 °F 25.0 °F 75% 30.21 in 10.0 mi West 15.0 mph 18.4 mph N/A   Overcast
11:14 AM 32.9 °F 24.1 °F 24.3 °F 71% 30.21 in 10.0 mi West 11.5 mph 21.9 mph N/A   Mostly Cloudy
11:34 AM 32.2 °F 21.1 °F 23.9 °F 72% 30.20 in 10.0 mi West 17.3 mph 23.0 mph N/A   Overcast
11:54 AM 31.8 °F 20.6 °F 21.6 °F 66% 30.19 in 10.0 mi WNW 17.3 mph 25.3 mph N/A Snow Light Snow
12:14 PM 32.0 °F 20.8 °F 19.9 °F 61% 30.19 in 10.0 mi West 17.3 mph 23.0 mph N/A   Overcast
12:34 PM 32.0 °F 23.6 °F 19.2 °F 59% 30.18 in 10.0 mi WNW 10.4 mph 21.9 mph N/A   Overcast
12:54 PM 32.0 °F 21.2 °F 19.2 °F 59% 30.18 in 10.0 mi WNW 16.1 mph 27.6 mph N/A   Overcast
1:14 PM 30.0 °F 19.1 °F 23.7 °F 77% 30.19 in 1.0 mi WNW 15.0 mph 24.2 mph N/A Snow Light Snow
1:34 PM 28.9 °F 19.2 °F 26.1 °F 89% 30.18 in 2.0 mi WNW 11.5 mph - N/A Snow Light Snow
1:53 PM 28.6 °F 16.8 °F 28.2 °F 99% 30.18 in 0.5 mi WNW 16.1 mph 20.7 mph N/A Snow Snow
2:14 PM 29.5 °F 18.8 °F 25.2 °F 84% 30.18 in 7.0 mi WNW 13.8 mph - N/A Snow Light Snow
2:34 PM 27.9 °F 16.8 °F 24.6 °F 88% 30.19 in 0.5 mi WNW 13.8 mph 20.7 mph N/A Snow Snow
2:54 PM 27.5 °F 18.0 °F 25.3 °F 92% 30.19 in 0.2 mi WNW 10.4 mph 29.9 mph N/A Snow Snow
3:14 PM 27.3 °F 17.1 °F 25.7 °F 94% 30.21 in 0.5 mi WNW 11.5 mph 24.2 mph N/A Snow Light Snow
3:34 PM 26.4 °F 16.0 °F 23.5 °F 89% 30.22 in 0.5 mi WNW 11.5 mph 18.4 mph N/A Snow Light Snow
3:53 PM 27.1 °F 16.9 °F 18.3 °F 69% 30.22 in 7.0 mi WNW 11.5 mph 28.8 mph N/A   Overcast
4:14 PM 27.3 °F 14.8 °F 14.5 °F 59% 30.22 in 10.0 mi WNW 17.3 mph 28.8 mph N/A   Overcast
4:34 PM 27.1 °F 14.1 °F 13.1 °F 56% 30.23 in 10.0 mi NW 18.4 mph 23.0 mph N/A   Overcast
4:53 PM 26.1 °F 16.8 °F 14.4 °F 61% 30.24 in 5.0 mi NW 9.2 mph 25.3 mph N/A Snow Light Snow
5:14 PM 25.2 °F 11.2 °F 17.2 °F 72% 30.26 in 2.0 mi NW 19.6 mph 28.8 mph N/A Snow Light Snow
5:34 PM 23.7 °F 16.6 °F 20.8 °F 89% 30.27 in 0.8 mi WNW 5.8 mph - N/A Snow Snow
5:54 PM 23.4 °F 16.2 °F 21.9 °F 94% 30.27 in 2.5 mi WNW 5.8 mph - N/A Snow Light Snow
6:14 PM 23.4 °F 12.2 °F 17.1 °F 77% 30.28 in 2.5 mi NNW 11.5 mph 20.7 mph N/A Snow Light Snow
6:34 PM 22.5 °F 10.5 °F 18.3 °F 84% 30.29 in 1.0 mi NW 12.7 mph 20.7 mph N/A Snow Light Snow
6:54 PM 21.9 °F 9.8 °F 18.7 °F 87% 30.30 in 1.5 mi NNW 12.7 mph 20.7 mph N/A Snow Light Snow
7:14 PM 21.4 °F 8.0 °F 17.2 °F 84% 30.30 in 2.0 mi NW 15.0 mph 20.7 mph N/A Snow Light Snow
7:34 PM 21.0 °F 8.6 °F 16.3 °F 82% 30.30 in 1.8 mi NW 12.7 mph - N/A Snow Light Snow
7:53 PM 21.2 °F 7.3 °F 12.9 °F 70% 30.31 in 5.0 mi NW 16.1 mph 24.2 mph N/A Snow Light Snow
8:14 PM 21.7 °F 11.5 °F 9.7 °F 60% 30.32 in 10.0 mi NNW 9.2 mph - N/A   Overcast
8:34 PM 20.3 °F 11.5 °F 14.4 °F 78% 30.33 in 1.2 mi NW 6.9 mph 19.6 mph N/A Snow Light Snow
8:54 PM 20.1 °F 11.3 °F 16.7 °F 87% 30.33 in 2.0 mi WNW 6.9 mph - N/A Snow Light Snow
9:14 PM 20.3 °F 9.8 °F 16.5 °F 85% 30.33 in 3.0 mi WNW 9.2 mph - N/A Snow Light Snow
9:34 PM 19.4 °F 7.2 °F 14.9 °F 83% 30.34 in 1.5 mi NW 11.5 mph 21.9 mph N/A Snow Light Snow
9:54 PM 20.3 °F 5.2 °F 9.9 °F 64% 30.33 in 5.0 mi WNW 18.4 mph 28.8 mph N/A Snow Light Snow
10:14 PM 20.5 °F 8.0 °F 8.1 °F 59% 30.34 in 2.5 mi NW 12.7 mph 24.2 mph N/A Snow Light Snow
10:34 PM 20.3 °F 5.2 °F 5.4 °F 52% 30.34 in 7.0 mi NW 18.4 mph 27.6 mph N/A   Overcast
10:54 PM 19.9 °F 8.6 °F 6.6 °F 56% 30.35 in 7.0 mi NW 10.4 mph 23.0 mph N/A   Overcast
11:14 PM 20.1 °F 7.5 °F 5.2 °F 52% 30.34 in 3.0 mi NW 12.7 mph 24.2 mph N/A   Haze
11:34 PM 17.6 °F 7.3 °F 13.8 °F 85% 30.35 in 0.2 mi NW 8.1 mph 25.3 mph N/A Snow Heavy Snow
11:54 PM 18.1 °F 7.1 °F 14.4 °F 85% 30.35 in 3.0 mi WNW 9.2 mph 17.3 mph N/A Snow Light Snow